Tracking 35275 objects as of 9-Sep-2026
HD Live streaming from Space Station
objects crossing your sky now

FLOCK 4X 12


FLOCK 4X 12 is no longer on orbit


NORAD ID: 51015
Int'l Code: 2022-002AH
Launch date: January 13, 2022
Source: United States (US)
Launch site: AIR FORCE EASTERN TEST RANGE (AFETR)
Decay date: 2024-10-17
Your satellite tracking list
Your tracking list is empty




NASA's NSSDC Master Catalog

Two Line Element Set (TLE):
1 51015U 22002AH  24291.36277778  .19631695  25467-5  56155-3 0  9997
2 51015  97.3539  12.0886 0010221 268.3699  91.6432 16.44587875154048
Source of the keplerian elements: AFSPC